Simultaneous Nadir Overpasses (SNOs) Predictions

Prediction of SNOs between GOES-15 and NOAA-19 Satellite Orbit:

Table of predicted SNOs for the next 14.0 days since TLE Epoch: 11/21/2025
Index Date Time (GOES-15) GOES-15 Lat,Lon NOAA-19 Lat,Lon Distance(km) Time Diff (sec)
1 11/22/2025 05:51:09 0.60, 61.62 0.33, 62.85 139.40 80
2 11/23/2025 05:38:28 0.62, 61.61 -0.37, 65.93 492.86 80
3 11/24/2025 18:06:56 -0.55, 61.66 -1.32, 58.43 369.09 80
4 11/25/2025 17:54:15 -0.58, 61.65 -0.62, 61.52 16.36 80
5 11/26/2025 17:44:13 -0.59, 61.65 0.07, 64.60 336.45 80
6 11/29/2025 06:00:02 0.54, 61.55 0.86, 60.17 158.14 80
7 11/30/2025 05:50:01 0.56, 61.54 0.15, 63.25 194.65 80
8 12/02/2025 18:05:48 -0.49, 61.59 -1.12, 58.83 315.19 80
9 12/03/2025 17:55:47 -0.51, 61.59 -0.42, 61.91 36.51 80
10 12/04/2025 17:43:04 -0.53, 61.59 0.22, 65.00 388.11 80
